sat.trackr.live / text

‹ back to catalog

STARLINK-32358

NORAD 61531 · 2024-183Y

PAYLOAD ACTIVE UNKNOWN

§ Identity

Operator
Country
US
Launch date
2024-10-15
Launch site
AFETR
Launch vehicle
Mass (kg)
RCS (m²)

Purposes: comms

External: N2YO · Heavens-Above · Gunter

§ Orbital elements

Epoch: 2026-09-21T03:34:13.033344Z

Period
93.85 min
Inclination
53.1611°
Eccentricity
0.0001326
Mean motion
15.34389347 rev/d
Perigee alt
461.8 km
Apogee alt
463.6 km
Semi-major
6,840.9 km
B*
7.2182e-6
RAAN
304.9250°
Arg perigee
84.6660°
Mean anomaly
275.4494°
Rev number
10,971

§ Raw data

STARLINK-323581 61531U 24183Y   26264.14876196 -.00000132  00000+0  72182-5 0  99972 61531  53.1611 304.9250 0001326  84.6660 275.4494 15.34389347109710

JSON: /api/v1/satellites/61531 · /tle

For live sub-satellite position, see the globe view (requires WebGL).

§ Visibility from observer

Set your observer location to see the next 7 days of passes ≥ 10°. The values pass through the URL so the page stays shareable.

No JS? Fill the form by hand. The geolocation button needs JavaScript.